Location: ????????
(55.3155°N, 39.2900°E)
Time: 18:47:17
(UTC+00:00)

ACS3 Solar Sail - Pass Details

Date: 22 November 2025
Orbit: 889 x 1003 km, 97.3° (Epoch: 06 December)

Event Time Altitude Azimuth Distance (km) Brightness Sun altitude
Rises 02:30:45 0° 10° (N) 3,577 4.8 -21.8°
Reaches altitude 10° 02:33:29 10° 359° (N) 2,649 4.0 -21.5°
Enters shadow 02:37:09 25° 323° (NW) 1,803 2.8 -20.9°
